Date,TemperatureHighF,TemperatureAvgF,TemperatureLowF,DewpointHighF,DewpointAvgF,DewpointLowF,HumidityHigh,HumidityAvg,HumidityLow,PressureMaxIn,PressureMinIn,WindSpeedMaxMPH,WindSpeedAvgMPH,GustSpeedMaxMPH,PrecipitationSumIn
2013-1-6,38.7,37.5,35.6,36.9,27.8,23.1,100,68,60,28.27,28.15,8,4,14,0.00
2013-1-7,48.9,36.0,28.2,23.1,17.2,15.3,60,47,28,28.42,28.27,5,2,8,0.00
2013-1-8,55.4,40.1,30.2,20.3,16.1,13.0,52,39,20,28.48,28.33,5,1,10,0.00
2013-1-9,50.5,44.4,37.0,46.8,32.9,15.2,100,67,37,28.54,28.33,5,1,7,0.00
2013-1-10,62.4,52.9,44.4,48.1,41.7,35.6,100,69,39,28.54,28.30,6,1,7,0.00
2013-1-11,61.7,56.0,51.6,56.7,48.9,34.9,100,79,48,28.30,28.15,8,2,14,0.00
2013-1-12,68.7,59.8,55.0,64.4,57.6,55.0,100,93,67,28.24,28.15,7,1,10,0.00
2013-1-13,70.5,59.7,51.4,56.1,47.7,41.1,100,68,35,28.18,28.07,7,1,9,0.00
2013-1-14,57.9,47.0,37.0,57.9,45.8,34.9,100,96,85,28.30,28.12,8,3,13,0.00
2013-1-15,47.5,43.6,38.2,47.5,43.6,37.9,100,100,97,28.21,28.01,7,2,17,0.00
2013-1-16,53.1,48.1,42.6,53.1,48.0,40.9,100,99,92,28.09,27.95,7,2,14,0.00
2013-1-17,33.1,32.3,28.8,33.1,31.1,24.2,100,95,78,30.19,28.04,2,0,5,0.00
2013-1-18,39.4,28.3,21.8,25.7,21.6,17.9,93,77,47,30.46,30.19,0,0,0,0.00
2013-1-19,43.7,31.0,22.8,28.9,22.3,18.9,92,72,38,30.34,30.10,6,1,10,0.00
2013-1-20,45.9,34.0,28.8,26.2,23.0,19.3,82,65,39,30.13,30.07,9,3,14,0.00
2013-1-21,41.2,33.2,25.5,6.1,0.4,-4.7,26,24,23,30.01,28.12,10,6,20,0.00
2013-1-22,27.3,23.2,17.6,-3.3,-9.3,-12.3,29,23,21,30.22,30.01,9,5,18,0.00
2013-1-23,36.5,29.6,20.1,11.9,3.8,-8.6,47,33,26,30.25,30.01,9,4,21,0.00
2013-1-24,36.9,26.6,19.0,18.2,2.0,-8.3,50,35,23,30.40,29.99,10,4,17,0.00
2013-1-25,32.2,25.9,19.6,32.2,14.9,-4.9,100,68,33,30.28,30.01,5,2,8,0.00
2013-1-26,33.6,30.7,25.7,32.4,26.0,20.7,100,83,63,30.28,30.04,5,1,10,0.00
2013-1-27,43.9,33.1,23.0,27.9,21.9,18.0,88,66,42,30.37,30.25,0,0,0,0.00
2013-1-28,59.4,45.7,35.4,45.2,31.7,22.4,91,60,35,30.31,30.19,0,0,0,0.00
2013-1-29,70.7,54.4,43.6,57.6,44.2,37.7,100,74,32,30.19,29.95,0,0,0,0.00
2013-1-30,65.8,57.0,43.3,55.2,49.5,36.6,100,79,48,29.93,29.51,0,0,0,0.00
2013-1-31,42.8,32.5,28.6,37.1,15.8,8.2,80,51,33,29.99,29.51,0,0,0,0.00
2013-2-1,34.7,22.4,14.0,28.1,2.3,-6.5,84,42,32,30.31,29.81,0,0,0,0.00
2013-2-2,28.8,22.9,16.0,26.3,11.7,-0.2,91,63,33,30.25,29.95,10,2,17,0.00
2013-2-3,34.3,30.7,27.0,29.8,23.9,10.4,100,77,48,30.04,29.87,9,5,21,0.00
2013-2-4,40.5,28.6,17.1,17.8,12.2,6.8,82,52,29,30.04,29.87,3,1,7,0.00
2013-2-5,48.7,38.3,32.0,30.9,23.7,15.4,80,56,41,29.95,29.84,6,2,14,0.00
2013-2-6,55.4,40.8,30.6,33.1,20.9,11.7,87,49,20,30.22,29.93,6,2,14,0.00
2013-2-7,52.5,43.7,36.7,30.3,22.1,15.2,61,43,33,30.16,29.93,6,2,10,0.00
2013-2-8,50.7,40.4,33.1,45.1,28.1,15.5,100,64,31,30.19,29.87,13,4,23,0.00
2013-2-9,52.2,36.4,26.4,15.8,11.8,7.4,56,38,20,30.28,30.19,6,2,10,0.00
2013-2-10,61.3,45.9,36.1,40.9,17.4,8.4,91,37,16,30.25,29.99,8,2,15,0.00
2013-2-11,54.5,50.1,42.4,50.5,39.3,22.5,96,68,44,30.04,29.93,10,5,14,0.00
2013-2-12,52.1,41.2,31.6,21.4,16.6,13.1,51,38,26,30.13,29.87,8,1,10,0.00
2013-2-13,45.7,40.2,34.7,42.7,32.8,20.8,96,76,42,29.87,29.60,9,3,14,0.00
2013-2-14,49.1,36.8,28.5,27.6,20.1,15.1,76,52,30,30.04,29.87,9,3,13,0.00
2013-2-15,52.6,37.3,32.0,34.0,25.3,20.7,87,63,30,30.01,29.93,9,2,18,0.00
2013-2-16,33.7,28.8,22.8,26.7,13.7,1.0,79,55,31,29.99,29.87,10,4,17,0.00
2013-2-17,34.3,25.7,17.6,7.2,0.0,-2.9,62,33,22,30.13,29.93,10,4,22,0.00
2013-2-18,22.6,21.3,21.2,2.2,2.1,1.4,43,43,39,30.25,29.95,7,2,13,0.00
2013-2-19,21.2,21.2,21.2,2.2,2.2,2.2,43,43,43,30.01,29.87,14,6,26,0.00
2013-2-20,21.2,21.2,21.2,2.2,2.2,2.2,43,43,43,30.13,30.01,9,4,16,0.00
2013-2-21,21.2,21.2,21.2,2.2,2.2,2.2,43,43,43,30.19,30.01,5,2,11,0.00
2013-2-22,21.2,21.2,21.2,2.2,2.2,2.2,43,43,43,30.07,29.95,6,2,13,0.00
2013-2-23,21.2,21.2,21.2,2.2,2.2,2.2,43,43,43,29.99,29.81,6,2,7,0.00
2013-2-24,55.4,33.2,21.2,18.6,7.6,2.2,43,35,20,30.04,29.84,7,3,15,0.00
2013-2-25,57.2,41.0,30.7,21.3,14.9,10.3,45,35,22,30.04,29.90,7,2,12,0.00
2013-2-26,55.6,44.9,36.5,42.7,29.3,17.0,93,56,40,29.90,29.51,10,5,19,0.00
2013-2-27,43.7,38.7,35.4,31.4,24.9,20.5,82,58,40,29.78,29.60,10,6,21,0.00
2013-2-28,35.2,33.0,31.3,25.6,19.4,13.2,75,58,41,29.90,29.69,9,5,19,0.00
2013-3-1,35.8,32.9,31.1,29.9,26.1,21.8,88,76,63,29.90,29.81,6,2,13,0.00
2013-3-2,32.5,32.5,32.5,28.8,28.8,28.8,86,86,86,29.84,29.84,1,1,2,0.00
2013-3-6,30.2,29.3,28.6,24.5,21.1,17.4,84,72,59,30.13,29.93,0,0,3,0.00
2013-3-7,33.9,30.9,28.0,21.1,17.7,14.9,73,58,47,30.31,30.10,0,0,0,0.00
2013-3-8,47.1,35.1,28.7,18.6,15.9,13.5,59,46,29,30.34,30.19,0,0,0,0.00
2013-3-9,66.7,45.8,28.4,20.4,15.9,8.8,69,35,15,30.28,30.16,0,0,0,0.00
2013-3-10,71.8,56.4,43.0,24.5,19.6,12.4,38,25,16,30.16,30.07,0,0,0,0.00
2013-3-11,59.4,55.7,49.1,50.2,31.8,16.4,100,49,19,30.07,29.81,0,0,0,0.00
2013-3-12,49.6,42.9,34.9,49.6,31.4,16.7,100,69,34,30.01,29.78,5,0,10,0.00
2013-3-13,39.2,34.6,28.2,22.3,13.0,3.2,68,42,29,30.16,29.99,16,4,23,0.00
2013-3-14,44.1,31.3,23.9,10.0,5.7,2.3,43,34,23,30.28,30.10,8,4,18,0.00
2013-3-15,57.9,42.6,27.0,26.7,16.9,7.3,47,36,26,30.13,29.90,10,2,15,0.00
2013-3-16,68.0,57.0,44.6,48.5,35.3,26.5,74,46,27,29.93,29.78,14,5,22,0.00
2013-3-17,61.2,54.0,47.0,51.3,42.6,37.3,100,68,46,29.99,29.90,7,3,11,0.00
2013-3-18,59.2,47.1,40.3,47.9,38.0,29.4,100,73,38,29.95,29.81,8,3,15,0.00
2013-3-19,54.0,45.5,36.9,48.4,21.7,-0.4,100,47,18,30.07,29.81,14,5,25,0.00
2013-3-20,50.5,39.0,27.5,26.1,6.3,-2.5,71,27,18,30.04,29.81,14,4,23,0.00
2013-3-21,35.4,27.2,21.0,9.9,2.7,-1.5,44,35,25,29.95,29.78,10,4,20,0.00
2013-3-22,45.9,30.5,17.6,9.9,5.6,1.7,55,37,20,30.04,29.90,6,2,13,0.00
2013-3-23,54.0,42.5,35.4,28.0,19.6,8.3,56,40,30,30.01,29.81,5,1,7,0.00
2013-3-24,49.6,43.9,41.0,42.3,35.2,25.4,95,73,46,29.84,29.45,8,4,15,0.00
2013-3-25,41.5,32.7,29.7,39.9,22.6,16.2,96,67,51,29.84,29.48,13,7,27,0.00
2013-3-26,29.5,29.4,29.3,23.5,23.4,23.3,78,78,78,29.84,29.84,5,4,9,0.00
2013-3-28,34.5,34.5,34.5,11.5,11.5,11.5,38,38,38,30.22,30.22,0,0,0,0.00
2013-3-29,50.9,39.3,28.0,32.6,18.1,10.1,76,45,21,30.25,30.16,10,3,20,0.00
2013-3-30,59.2,46.0,32.9,39.7,29.9,24.3,100,60,27,30.19,30.01,7,2,12,0.00
2013-3-31,57.7,49.5,44.4,54.6,46.0,28.4,100,89,48,29.99,29.81,7,2,15,0.00
2013-4-1,57.5,48.8,40.5,48.6,36.2,18.6,100,69,27,29.99,29.84,12,4,20,0.00
2013-4-2,54.5,41.5,30.9,21.4,12.4,4.4,52,32,18,30.16,29.99,9,3,17,0.00
2013-4-3,54.0,42.0,29.8,14.0,8.6,3.5,41,26,18,30.25,30.10,7,2,13,0.00
2013-4-4,42.3,38.5,34.5,35.2,17.8,4.1,100,53,21,30.19,29.93,6,3,11,0.00
2013-4-10,76.9,68.0,63.9,45.2,40.9,35.1,50,38,22,28.09,28.04,2,0,5,0.00
2013-4-11,82.8,69.0,59.2,59.5,42.0,33.2,88,41,19,28.07,27.83,9,2,20,0.00
2013-4-12,64.1,57.6,47.8,59.4,44.1,24.7,100,67,25,28.07,27.74,13,4,23,0.00
2013-4-13,68.9,54.7,42.1,31.7,24.4,15.7,59,34,15,28.18,28.04,9,3,17,0.00
2013-4-14,75.4,59.6,43.8,39.5,25.1,20.2,55,29,15,28.15,28.09,8,2,15,0.00
2013-4-15,74.8,60.6,52.7,47.6,43.2,38.5,81,55,31,28.24,28.07,6,2,9,0.00
2013-4-16,82.9,66.7,53.4,50.8,43.7,36.0,86,49,20,28.39,28.24,6,2,13,0.00
2013-4-17,68.4,61.5,58.8,61.9,54.8,44.0,100,81,46,28.39,28.21,9,1,14,0.00
2013-4-18,80.6,68.2,57.6,54.4,46.3,34.2,83,51,20,28.21,28.04,7,2,17,0.00
2013-4-19,69.3,58.8,43.7,58.8,43.7,21.1,94,59,39,28.07,27.83,9,4,18,0.00
2013-4-20,62.6,46.8,34.9,24.1,17.5,10.5,50,32,16,28.33,28.07,7,2,13,0.00
2013-4-21,66.4,51.3,37.6,25.1,17.6,12.6,39,27,17,28.42,28.30,6,2,10,0.00
2013-4-22,69.0,54.0,41.4,30.9,23.8,17.8,53,33,17,28.42,28.27,5,2,9,0.00
2013-4-23,72.9,56.9,41.9,32.1,23.3,14.6,42,28,16,28.30,28.15,6,2,10,0.00
2013-4-24,72.0,58.4,45.5,56.9,40.7,30.1,90,55,28,28.27,28.07,13,3,17,0.00
2013-4-25,65.2,49.9,37.8,39.5,24.7,15.2,80,41,18,28.39,28.24,7,2,13,0.00
2013-4-26,68.7,54.2,38.8,27.4,20.5,13.4,50,29,15,28.42,28.36,5,1,10,0.00
2013-4-27,59.4,54.8,51.3,51.0,38.5,24.6,90,57,32,28.42,28.24,5,1,7,0.00
2013-4-28,56.8,52.9,49.8,53.6,50.1,47.5,100,91,82,28.24,28.04,7,1,10,0.00
2013-4-29,72.3,59.2,51.4,54.2,46.1,36.2,96,67,28,28.15,28.07,8,1,10,0.00
2013-4-30,80.6,65.3,53.1,55.2,44.0,33.9,94,52,20,28.27,28.09,5,1,9,0.00
2013-5-1,71.2,63.0,54.3,49.0,41.5,33.7,78,48,26,28.39,28.27,7,2,12,0.00
2013-5-2,72.9,62.6,55.6,45.5,41.2,35.5,67,47,26,28.36,28.30,5,2,10,0.00
2013-5-3,68.4,61.0,54.0,42.0,35.2,21.4,63,41,17,28.30,28.18,6,2,9,0.00
2013-5-4,60.1,55.9,52.5,37.3,28.7,21.9,46,35,30,28.21,28.07,6,4,14,0.00
2013-5-5,53.6,53.6,53.6,29.8,29.8,29.8,40,40,40,28.15,28.15,6,6,6,0.00
2013-5-6,53.6,53.6,53.6,29.8,29.8,29.8,40,40,40,28.15,28.15,6,6,6,0.00
2013-5-7,53.6,53.6,53.6,29.8,29.8,29.8,40,40,40,28.15,28.15,6,6,6,0.00
2013-5-8,53.6,53.6,53.6,29.8,29.8,29.8,40,40,40,28.15,28.15,6,6,6,0.00
2013-5-9,53.6,53.6,53.6,29.8,29.8,29.8,40,40,40,28.15,28.15,6,6,6,0.00
2013-5-10,53.6,53.6,53.6,29.8,29.8,29.8,40,40,40,28.15,28.15,6,6,6,0.00
2013-5-11,53.6,53.6,53.6,29.8,29.8,29.8,40,40,40,28.15,28.15,6,6,6,0.00
2013-5-12,53.6,53.6,53.6,29.8,29.8,29.8,40,40,40,28.15,28.15,6,6,6,0.00
2013-5-13,53.6,53.6,53.6,29.8,29.8,29.8,40,40,40,28.15,28.15,6,6,6,0.00
2013-5-14,74.7,61.4,53.1,41.3,32.4,25.0,45,34,23,28.24,28.12,8,5,14,0.00
2013-5-15,84.0,68.6,55.9,51.0,43.9,38.1,77,44,21,28.24,28.15,12,4,20,0.00
2013-5-16,76.6,65.7,55.6,55.5,47.7,41.1,87,56,29,28.21,28.12,7,2,9,0.00
2013-5-17,83.7,68.6,57.7,59.2,49.9,39.8,94,57,22,28.27,28.15,10,1,13,0.00
2013-5-18,72.1,65.6,60.1,66.2,59.7,55.6,100,83,56,28.27,28.18,6,1,6,0.00
2013-5-19,81.0,68.6,62.4,66.0,58.6,48.4,100,75,33,28.24,28.18,7,1,12,0.00
2013-5-20,82.9,66.8,61.0,66.0,60.2,48.7,100,83,31,28.30,28.15,5,1,6,0.00
2013-5-21,87.4,71.1,61.0,62.6,57.8,45.1,100,70,23,28.24,28.12,15,1,22,0.00
2013-5-22,83.3,67.0,59.0,66.5,58.2,48.0,100,79,31,28.15,28.04,7,1,13,0.00
2013-5-23,75.7,64.6,59.9,69.1,59.1,46.3,100,86,36,28.09,28.01,7,1,11,0.00
2013-5-24,59.9,59.9,59.9,56.0,56.0,56.0,87,87,87,28.07,28.07,0,0,0,0.00
2013-5-25,59.9,59.9,59.9,56.0,56.0,56.0,87,87,87,28.07,28.07,0,0,0,0.00
2013-5-26,59.9,59.9,59.9,56.0,56.0,56.0,87,87,87,28.07,28.07,0,0,0,0.00
2013-5-27,59.9,59.9,59.9,56.0,56.0,56.0,87,87,87,28.07,28.07,0,0,0,0.00
2013-5-28,59.9,59.9,59.9,56.0,56.0,56.0,87,87,87,28.07,28.07,0,0,0,0.00
2013-5-29,59.9,59.9,59.9,56.0,56.0,56.0,87,87,87,28.07,28.07,0,0,0,0.00
2013-5-31,67.3,60.3,59.9,56.0,55.7,49.6,87,85,53,28.27,28.07,0,0,0,0.00
2013-6-1,87.4,74.2,63.3,58.6,50.6,41.2,78,47,21,28.27,28.12,7,2,12,0.00
2013-6-2,72.1,67.5,64.8,67.0,60.6,47.8,97,80,42,28.18,28.07,7,1,12,0.00
2013-6-3,79.2,69.1,63.1,67.6,56.7,45.7,100,69,32,28.18,28.04,5,1,9,0.00
2013-6-4,84.0,69.2,57.8,56.9,49.8,42.9,93,55,25,28.24,28.15,2,1,5,0.00
2013-6-5,85.9,70.9,60.4,62.6,52.6,45.8,87,56,25,28.21,28.12,3,1,7,0.00
2013-6-6,79.4,67.8,63.7,63.6,60.3,51.5,94,79,40,28.15,27.95,5,0,10,0.00
2013-6-7,76.3,68.7,63.7,65.1,60.5,49.8,92,77,41,28.04,27.83,2,1,6,0.00
2013-6-8,81.1,68.3,59.0,63.9,54.3,45.6,100,66,29,28.27,28.04,6,1,10,0.00
2013-6-9,85.8,68.2,60.9,64.1,57.4,42.0,92,72,22,28.33,28.18,5,0,8,0.00
2013-6-10,76.8,69.1,65.0,68.9,61.6,48.2,100,79,37,28.21,28.07,8,2,15,0.00
2013-6-11,80.4,69.6,62.8,63.7,55.6,46.2,100,66,31,28.21,28.07,6,2,12,0.00
2013-6-12,89.8,75.6,63.0,67.7,60.4,54.9,95,63,34,28.21,28.09,7,2,13,0.00
2013-6-13,79.2,71.3,63.3,68.7,62.1,50.5,95,74,52,28.09,27.95,8,3,20,0.00
2013-6-14,78.3,66.4,56.7,57.0,46.3,34.6,92,53,22,28.24,28.04,3,1,6,0.00
2013-6-15,83.1,68.3,54.5,58.0,48.2,40.4,97,55,23,28.30,28.21,5,1,9,0.00
2013-6-16,73.6,65.5,64.8,58.4,50.7,50.1,67,59,48,28.24,28.21,1,0,1,0.00
2013-6-17,82.4,71.9,63.5,67.5,60.1,54.0,100,70,39,28.24,28.12,8,1,12,0.00
2013-6-18,72.1,67.4,62.4,66.3,61.1,52.6,96,81,52,28.12,28.04,3,0,5,0.00
2013-6-19,81.1,68.7,58.3,67.4,56.1,46.8,100,70,31,28.27,28.12,2,0,5,0.00
2013-6-20,83.7,69.8,61.3,62.0,56.0,46.9,92,67,29,28.39,28.27,2,0,5,0.00
2013-6-22,86.0,73.1,61.5,60.4,48.5,37.5,92,49,18,28.42,28.30,3,1,6,0.00
2013-6-23,88.5,73.7,62.4,62.0,52.2,42.9,85,52,21,28.39,28.30,5,1,8,0.00
2013-6-24,86.5,73.8,64.8,64.6,57.2,49.4,88,60,29,28.42,28.27,5,1,10,0.00
2013-6-25,82.9,72.1,65.5,65.8,60.8,52.9,93,70,39,28.33,28.18,5,1,13,0.00
2013-6-26,82.1,70.9,65.7,68.8,64.4,56.7,97,82,42,28.24,28.15,6,1,10,0.00
2013-6-27,81.0,69.8,64.4,72.9,66.0,61.3,100,89,52,28.09,27.95,8,2,17,0.00
2013-6-28,81.3,72.0,66.6,70.7,63.7,51.9,100,78,46,27.95,27.83,7,3,13,0.00
2013-6-29,82.1,72.1,64.4,67.5,56.0,43.7,100,63,27,27.92,27.83,8,2,13,0.00
2013-6-30,84.9,71.8,61.2,63.4,52.6,39.7,89,56,21,28.01,27.89,7,1,12,0.00
2013-7-1,84.6,70.9,64.9,66.0,59.7,48.8,95,73,29,28.12,27.98,5,1,9,0.00
2013-7-2,85.5,71.5,64.2,70.8,61.8,50.7,100,76,33,28.27,28.09,7,1,16,0.00
2013-7-3,72.1,67.4,63.1,70.6,65.7,63.0,100,95,89,28.36,28.24,3,0,6,0.00
2013-7-4,82.8,70.9,63.0,73.0,63.0,55.2,100,80,42,28.36,28.30,5,1,8,0.00
2013-7-5,86.4,73.3,65.7,70.0,60.7,51.5,100,69,33,28.45,28.30,6,1,9,0.00
2013-7-6,84.8,73.0,66.7,71.0,60.8,51.1,100,70,32,28.45,28.39,5,1,10,0.00
2013-7-7,75.9,70.3,66.6,70.1,64.2,59.3,96,82,61,28.45,28.30,6,1,10,0.00
2013-7-8,85.9,72.0,64.8,68.0,59.3,42.6,100,71,23,28.45,28.33,5,0,9,0.00
2013-7-9,89.3,75.0,65.1,66.1,58.5,47.1,92,62,24,28.45,28.36,5,1,8,0.00
2013-7-10,85.5,74.0,68.4,68.6,64.2,56.7,93,73,40,28.42,28.21,6,1,9,0.00
2013-7-11,81.1,72.0,67.5,69.7,64.8,57.1,96,80,47,28.24,28.15,5,1,8,0.00
2013-7-12,83.5,71.8,64.6,68.2,57.7,45.9,100,67,29,28.24,28.18,3,1,6,0.00
2013-7-13,83.4,72.6,64.2,59.7,54.1,46.4,83,56,30,28.39,28.21,5,2,9,0.00
2013-7-14,86.1,74.5,68.2,68.6,58.7,48.2,97,62,31,28.51,28.36,3,2,7,0.00
2013-7-15,88.3,75.5,65.8,64.8,55.6,48.3,88,54,26,28.60,28.45,3,2,7,0.00
2013-7-16,91.3,77.3,64.9,65.8,56.2,45.2,88,54,21,28.60,28.51,2,0,5,0.00
2013-7-17,89.4,75.0,68.4,69.1,63.5,52.8,95,71,33,28.60,28.48,6,1,9,0.00
2013-7-18,89.7,73.4,68.0,73.3,65.5,49.5,100,80,33,28.48,28.36,6,0,14,0.00
2013-7-19,87.5,75.3,66.2,72.7,64.4,57.6,100,73,38,28.39,28.30,6,1,10,0.00
2013-7-20,86.1,74.5,67.1,70.3,63.5,54.8,100,72,37,28.30,28.21,6,1,9,0.00
2013-7-21,82.1,72.5,67.6,71.2,64.8,51.1,98,79,40,28.27,28.18,5,1,10,0.00
2013-7-22,82.1,72.3,66.7,69.1,63.6,52.9,96,77,37,28.24,28.07,7,2,12,0.00
2013-7-23,86.4,73.8,68.6,69.1,61.7,48.0,100,71,29,28.15,28.04,8,3,12,0.00
2013-7-24,82.2,73.7,68.7,70.3,59.9,49.4,97,66,32,28.15,28.01,6,1,9,0.00
2013-7-25,81.8,71.0,62.6,62.2,50.7,38.4,93,54,22,28.30,28.12,2,1,6,0.00
2013-7-26,86.2,71.2,58.1,58.9,51.6,44.1,83,54,24,28.30,28.21,6,1,12,0.00
2013-7-27,80.1,70.2,66.6,68.1,62.8,52.2,94,79,44,28.27,28.12,5,0,8,0.00
2013-7-28,81.4,70.7,63.5,67.6,55.4,38.4,100,65,22,28.30,28.12,6,1,13,0.00
2013-7-29,81.0,66.9,56.7,56.2,46.1,36.3,86,52,21,28.42,28.24,5,1,9,0.00
2013-7-30,79.2,68.0,58.1,56.8,48.9,40.4,76,54,26,28.42,28.36,5,0,9,0.00
2013-7-31,69.4,66.0,63.1,66.7,62.7,56.6,96,89,73,28.42,28.18,2,0,3,0.00
2013-8-1,82.8,72.2,66.0,69.3,60.5,49.6,100,72,34,28.24,28.12,3,1,5,0.00
2013-8-2,82.6,70.6,62.1,66.6,54.2,40.4,96,62,23,28.33,28.21,3,0,5,0.00
2013-8-3,83.1,72.1,63.1,63.6,56.4,48.0,90,61,31,28.27,28.18,7,2,12,0.00
2013-8-4,83.3,73.2,65.3,66.5,54.2,38.8,94,58,21,28.30,28.18,6,1,8,0.00
2013-8-5,84.0,70.8,60.8,57.4,50.1,36.8,84,53,20,28.30,28.21,6,1,10,0.00
2013-8-6,83.3,72.5,63.7,63.5,55.6,47.7,80,59,30,28.27,28.18,5,1,7,0.00
2013-8-7,81.1,72.0,67.8,68.2,63.7,55.2,94,77,42,28.30,28.24,7,1,15,0.00
2013-8-8,76.3,72.9,67.3,73.6,67.4,66.6,100,84,72,28.27,28.24,1,0,5,0.00
2013-8-9,76.3,76.3,76.3,66.6,66.6,66.6,72,72,72,28.27,28.27,0,0,0,0.00
2013-8-10,76.3,76.3,76.3,66.6,66.6,66.6,72,72,72,28.27,28.27,0,0,0,0.00
2013-8-11,76.3,76.3,76.3,66.6,66.6,66.6,72,72,72,28.27,28.27,0,0,0,0.00
2013-8-12,76.3,76.3,76.3,66.6,66.6,66.6,72,72,72,28.27,28.27,0,0,0,0.00
2013-8-13,76.3,76.3,76.3,66.6,66.6,66.6,72,72,72,28.27,28.27,0,0,0,0.00
2013-8-14,76.3,76.3,76.3,66.6,66.6,66.6,72,72,72,28.27,28.27,0,0,0,0.00
2013-8-15,76.3,76.3,76.3,66.6,66.6,66.6,72,72,72,28.27,28.27,0,0,0,0.00
2013-8-16,76.3,76.3,76.3,66.6,66.6,66.6,72,72,72,28.27,28.27,0,0,0,0.00
2013-8-17,76.3,76.3,76.3,66.6,66.6,66.6,72,72,72,28.27,28.27,0,0,0,0.00
2013-8-18,76.3,76.3,76.3,66.6,66.6,66.6,72,72,72,28.27,28.27,0,0,0,0.00
2013-8-19,76.3,76.3,76.3,66.6,66.6,66.6,72,72,72,28.27,28.27,0,0,0,0.00
2013-8-20,76.3,76.3,76.3,66.6,66.6,66.6,72,72,72,28.27,28.27,0,0,0,0.00
2013-8-21,76.3,76.3,76.3,66.6,66.6,66.6,72,72,72,28.27,28.27,0,0,0,0.00
2013-8-22,76.3,76.3,76.3,66.6,66.6,66.6,72,72,72,28.27,28.27,0,0,0,0.00
2013-8-23,76.3,76.3,76.3,66.6,66.6,66.6,72,72,72,28.27,28.27,0,0,0,0.00
2013-8-24,82.8,71.4,62.4,66.6,49.6,37.3,92,52,20,28.54,28.27,3,1,7,0.00
2013-8-25,82.8,68.4,57.2,54.5,44.4,34.4,79,47,20,28.54,28.45,3,1,6,0.00
2013-8-26,83.1,68.5,57.2,59.7,52.2,46.4,87,60,31,28.48,28.39,5,1,9,0.00
2013-8-27,81.9,70.6,63.0,64.6,60.4,54.5,93,73,40,28.39,28.30,5,1,7,0.00
2013-8-28,86.9,74.4,66.6,70.2,60.8,49.6,100,68,28,28.30,28.24,6,1,10,0.00
2013-8-29,90.1,77.5,69.8,67.2,58.8,43.2,85,57,20,28.30,28.18,5,1,7,0.00
2013-8-30,88.9,75.7,66.9,66.0,57.6,45.7,89,59,23,28.27,28.21,6,1,10,0.00
2013-8-31,80.6,71.9,67.5,72.1,66.5,52.9,97,84,45,28.21,28.15,7,1,12,0.00
2013-9-1,81.3,70.3,67.3,70.8,66.1,54.2,100,88,40,28.18,28.09,5,0,9,0.00
2013-9-2,83.8,73.1,67.1,71.1,63.7,53.6,100,77,36,28.18,28.09,7,2,10,0.00
2013-9-3,82.4,70.4,61.9,68.3,58.4,44.4,100,71,27,28.24,28.07,6,1,10,0.00
2013-9-4,83.9,68.1,58.4,67.1,51.7,37.5,100,65,20,28.39,28.24,5,1,10,0.00
2013-9-5,84.4,68.3,57.6,61.7,49.8,38.3,93,58,21,28.42,28.30,3,1,6,0.00
2013-9-6,85.3,69.8,58.8,64.5,51.4,39.0,94,58,20,28.39,28.33,2,1,5,0.00
2013-9-7,83.8,69.7,59.4,65.0,52.9,43.2,95,60,25,28.33,28.24,7,1,10,0.00
2013-9-8,83.7,70.8,62.2,66.8,57.1,46.9,93,66,30,28.30,28.21,3,0,7,0.00
2013-9-9,89.1,73.8,63.3,71.0,57.3,43.8,100,63,22,28.39,28.27,5,1,8,0.00
2013-9-10,89.6,75.3,65.5,65.3,56.5,44.5,90,59,21,28.51,28.39,3,1,7,0.00
2013-9-11,82.2,73.1,67.5,67.5,60.9,54.1,90,68,41,28.51,28.36,5,1,9,0.00
2013-9-12,85.5,71.3,64.4,69.3,62.2,48.7,96,77,30,28.39,28.15,7,1,13,0.00
2013-9-13,74.7,65.9,55.8,65.5,48.7,30.0,100,62,21,28.15,28.04,5,2,7,0.00
2013-9-14,74.8,59.5,47.3,48.2,38.4,28.2,92,51,18,28.27,28.09,5,1,7,0.00
2013-9-15,79.9,64.4,52.8,52.1,44.8,35.8,85,54,21,28.33,28.21,6,1,8,0.00
2013-9-16,72.1,64.4,58.6,61.1,53.0,47.5,92,69,45,28.36,28.24,3,0,6,0.00
2013-9-17,75.9,63.6,56.3,52.7,43.8,38.8,80,51,30,28.36,28.30,5,2,7,0.00
2013-9-18,69.1,60.9,54.9,59.4,50.1,40.1,91,70,37,28.36,28.27,2,0,5,0.00
2013-9-19,76.3,66.5,61.7,64.2,58.9,52.5,100,79,44,28.33,28.24,6,1,9,0.00
2013-9-20,68.9,68.9,68.9,56.2,56.2,56.2,64,64,64,28.27,28.27,0,0,0,0.00
2013-9-21,68.9,68.9,68.9,56.2,56.2,56.2,64,64,64,28.27,28.27,0,0,0,0.00
2013-9-22,68.9,68.9,68.9,56.2,56.2,56.2,64,64,64,28.27,28.27,0,0,0,0.00
2013-9-23,68.9,68.9,68.9,56.2,56.2,56.2,64,64,64,28.27,28.27,0,0,0,0.00
2013-9-24,68.9,68.9,68.9,56.2,56.2,56.2,64,64,64,28.27,28.27,0,0,0,0.00
2013-9-25,68.9,68.9,68.9,56.2,56.2,56.2,64,64,64,28.27,28.27,0,0,0,0.00
2013-9-26,68.9,68.9,68.9,56.2,56.2,56.2,64,64,64,28.27,28.27,0,0,0,0.00
2013-9-27,68.9,68.9,68.9,56.2,56.2,56.2,64,64,64,28.27,28.27,0,0,0,0.00
2013-9-28,68.9,68.9,68.9,56.2,56.2,56.2,64,64,64,28.27,28.27,0,0,0,0.00
2013-9-29,68.9,68.9,68.9,56.2,56.2,56.2,64,64,64,28.27,28.27,0,0,0,0.00
2013-9-30,68.9,68.9,68.9,56.2,56.2,56.2,64,64,64,28.27,28.27,0,0,0,0.00
2013-10-1,68.9,68.9,68.9,56.2,56.2,56.2,64,64,64,28.27,28.27,0,0,0,0.00
2013-10-2,68.9,68.9,68.9,56.2,56.2,56.2,64,64,64,28.27,28.27,0,0,0,0.00
2013-10-3,68.9,68.9,68.9,56.2,56.2,56.2,64,64,64,28.27,28.27,0,0,0,0.00
2013-10-4,68.9,68.9,68.9,56.2,56.2,56.2,64,64,64,28.27,28.27,0,0,0,0.00
2013-10-5,68.9,68.9,68.9,56.2,56.2,56.2,64,64,64,28.27,28.27,0,0,0,0.00
2013-10-6,83.5,70.9,60.6,63.3,49.4,38.7,92,53,21,28.27,28.07,8,2,13,0.00
2013-10-7,69.4,60.2,51.6,62.3,45.3,29.9,96,62,25,28.24,27.95,7,2,13,0.00
2013-10-8,70.1,56.0,45.3,40.4,34.8,28.7,81,49,23,28.27,28.18,5,2,11,0.00
2013-10-9,73.0,58.3,49.3,36.8,31.2,26.2,56,38,19,28.30,28.24,5,2,8,0.00
2013-10-10,71.2,56.9,44.2,45.2,33.1,26.6,69,43,22,28.24,28.15,2,0,5,0.00
2013-10-11,77.0,60.7,47.8,52.2,37.3,24.3,88,49,15,28.18,28.09,3,0,5,0.00
2013-10-12,69.4,62.1,56.8,56.9,48.8,39.5,92,63,45,28.24,28.12,2,0,5,0.00
2013-10-13,75.2,63.8,56.8,62.1,53.7,43.2,100,73,34,28.39,28.24,3,0,5,0.00
2013-10-14,74.3,64.0,57.9,56.1,49.2,41.5,83,61,32,28.39,28.30,5,1,7,0.00
2013-10-15,74.3,62.4,53.2,52.4,46.3,39.8,89,59,30,28.36,28.21,3,0,5,0.00
2013-10-16,62.8,62.8,62.8,46.8,46.8,46.8,56,56,56,28.21,28.21,0,0,0,0.00
2013-10-17,62.8,62.8,62.8,46.8,46.8,46.8,56,56,56,28.21,28.21,0,0,0,0.00
2013-10-18,62.8,62.8,62.8,46.8,46.8,46.8,56,56,56,28.21,28.21,0,0,0,0.00
2013-10-19,62.8,62.8,62.8,46.8,46.8,46.8,56,56,56,28.21,28.21,0,0,0,0.00
2013-10-20,62.8,62.8,62.8,46.8,46.8,46.8,56,56,56,28.21,28.21,0,0,0,0.00
2013-10-21,62.8,62.8,62.8,46.8,46.8,46.8,56,56,56,28.21,28.21,0,0,0,0.00
2013-10-22,62.8,62.8,62.8,46.8,46.8,46.8,56,56,56,28.21,28.21,0,0,0,0.00
2013-10-23,62.8,62.8,62.8,46.8,46.8,46.8,56,56,56,28.21,28.21,0,0,0,0.00
2013-10-24,62.8,62.8,62.8,46.8,46.8,46.8,56,56,56,28.21,28.21,0,0,0,0.00
2013-10-25,62.8,62.8,62.8,46.8,46.8,46.8,56,56,56,28.21,28.21,0,0,0,0.00
2013-10-26,62.8,62.8,62.8,46.8,46.8,46.8,56,56,56,28.21,28.21,0,0,0,0.00
2013-10-27,62.8,62.8,62.8,46.8,46.8,46.8,56,56,56,28.21,28.21,0,0,0,0.00
2013-10-28,62.8,62.8,62.8,46.8,46.8,46.8,56,56,56,28.21,28.21,0,0,0,0.00
2013-10-29,62.8,62.8,62.8,46.8,46.8,46.8,56,56,56,28.21,28.21,0,0,0,0.00
2013-10-30,62.8,62.8,62.8,46.8,46.8,46.8,56,56,56,28.21,28.21,0,0,0,0.00
2013-10-31,62.8,62.8,62.8,46.8,46.8,46.8,56,56,56,28.21,28.21,0,0,0,0.00
2013-11-1,70.2,63.3,53.2,62.2,42.4,26.7,100,53,22,28.21,27.80,12,5,19,0.00
2013-11-2,60.6,50.2,42.1,41.6,27.3,16.6,85,44,19,28.12,27.89,9,2,17,0.00
2013-11-3,46.9,41.4,36.7,32.5,29.5,22.4,71,63,39,28.24,28.12,3,1,6,0.00
2013-11-4,45.9,42.0,41.7,31.9,30.5,15.3,68,65,29,28.45,28.24,2,1,6,0.00
2013-11-5,65.6,49.1,40.5,24.0,17.7,14.4,42,30,15,28.45,28.42,3,1,7,0.00
2013-11-6,73.6,57.7,44.1,45.1,35.6,22.7,84,48,21,28.42,28.18,10,3,15,0.00
2013-11-7,58.8,49.6,38.5,51.6,32.1,16.2,93,53,29,28.27,28.09,7,2,14,0.00
2013-11-8,51.5,37.9,28.8,21.5,12.9,5.8,63,38,19,28.39,28.21,2,2,6,0.00
2013-11-9,54.0,41.1,31.8,20.1,13.0,9.8,50,33,18,28.30,28.21,2,2,6,0.00
2013-11-10,62.4,45.2,33.1,27.6,17.4,6.3,69,36,16,28.33,28.21,2,2,6,0.00
2013-11-11,64.2,44.7,29.8,17.0,11.5,6.2,44,28,16,28.30,28.15,2,2,6,0.00
2013-11-12,47.8,35.4,25.5,27.5,12.9,2.6,60,41,23,28.51,28.09,2,2,6,0.00
2013-11-13,41.7,32.7,20.5,9.0,5.6,4.3,54,34,21,28.57,28.42,2,2,6,0.00
2013-11-14,41.7,41.7,41.7,4.6,4.6,4.6,21,21,21,28.51,28.51,2,2,6,0.00
2013-11-16,61.7,61.7,61.3,39.8,39.6,39.5,45,44,44,28.27,28.27,1,0,3,0.00
2013-11-17,68.2,58.8,48.6,58.1,47.6,37.6,95,70,33,28.27,27.95,6,2,16,0.00
2013-11-18,59.5,57.6,57.4,58.1,56.5,54.0,100,96,88,28.01,27.95,6,1,10,0.00
2013-11-19,57.4,57.3,38.5,56.5,56.2,13.2,97,97,35,28.24,28.01,3,1,7,0.00
2013-11-20,55.2,43.4,35.4,14.6,10.9,5.8,40,27,18,28.42,28.21,7,2,9,0.00
2013-11-21,44.4,44.4,44.4,5.8,5.8,5.8,20,20,20,28.36,28.36,1,1,0,0.00
2013-11-22,44.4,44.4,44.4,5.8,5.8,5.8,20,20,20,28.36,28.36,1,1,0,0.00
2013-11-23,44.4,44.4,44.4,5.8,5.8,5.8,20,20,20,28.36,28.36,1,1,0,0.00
2013-11-24,44.4,44.4,44.4,5.8,5.8,5.8,20,20,20,28.36,28.36,1,1,0,0.00
2013-11-25,44.4,44.4,44.4,5.8,5.8,5.8,20,20,20,28.36,28.36,1,1,0,0.00
2013-11-26,44.4,44.4,44.4,5.8,5.8,5.8,20,20,20,28.36,28.36,1,1,0,0.00
2013-11-27,44.4,28.5,21.4,29.1,14.0,0.9,87,57,20,28.36,27.77,8,4,17,0.00
2013-11-28,38.3,24.2,13.6,10.9,5.1,-1.7,62,45,27,28.45,28.18,5,1,7,0.00
2013-11-29,46.7,32.2,21.9,18.1,12.1,8.6,76,46,22,28.54,28.39,3,1,5,0.00
2013-11-30,52.6,37.7,30.5,15.6,12.2,9.6,42,36,21,28.48,28.27,6,2,9,0.00
2013-12-1,52.5,38.3,27.0,21.4,16.1,10.2,54,41,26,28.27,28.04,8,1,12,0.00
2013-12-2,49.3,43.8,38.5,30.1,25.0,18.7,61,48,39,28.04,27.83,3,1,5,0.00
2013-12-3,59.7,48.8,41.5,37.2,31.5,27.0,69,52,34,27.95,27.83,3,1,5,0.00
2013-12-4,68.9,55.1,45.3,43.6,37.5,31.3,87,55,26,28.12,27.95,6,2,10,0.00
2013-12-5,68.7,60.4,52.7,59.4,43.9,39.0,93,56,34,28.15,28.07,7,2,14,0.00
2013-12-6,61.9,52.6,39.0,61.9,50.7,34.6,100,94,71,28.18,28.01,12,2,19,0.00
2013-12-7,39.4,35.4,32.5,37.5,28.8,23.6,94,77,56,28.42,28.18,10,3,14,0.00
2013-12-8,43.0,38.2,34.0,39.4,31.8,25.9,100,79,55,28.33,28.07,5,3,5,0.00
2013-12-9,47.1,43.5,39.6,47.1,43.5,39.6,100,100,100,28.18,28.01,3,3,3,0.00
2013-12-10,42.1,35.4,24.3,42.1,26.7,9.0,100,74,40,28.27,27.98,3,3,3,0.00
2013-12-11,43.9,30.1,21.1,21.6,11.8,6.2,85,50,23,28.39,28.24,3,3,3,0.00
2013-12-12,34.9,27.4,21.9,10.5,4.8,-2.2,56,39,22,28.36,28.24,3,3,3,0.00
2013-12-13,45.3,31.1,20.7,10.1,5.4,2.5,48,35,20,28.30,28.15,3,3,9,0.00
2013-12-14,42.3,40.0,36.9,40.1,25.8,4.6,94,62,23,28.21,27.89,5,2,8,0.00
2013-12-15,44.2,34.9,29.8,44.2,25.2,16.4,100,68,56,28.18,27.83,8,5,15,0.00
2013-12-16,43.5,35.4,28.6,24.2,20.5,17.4,81,57,35,28.24,28.15,8,5,13,0.00
2013-12-17,50.0,41.3,32.2,30.2,19.6,6.5,67,42,30,28.21,28.01,13,4,23,0.00
2013-12-18,41.2,32.1,25.3,11.1,7.9,4.5,51,36,23,28.36,28.21,8,3,13,0.00
2013-12-19,53.4,38.0,27.0,11.8,7.9,2.9,41,29,18,28.36,28.21,3,1,6,0.00
2013-12-20,61.5,47.3,35.8,20.7,14.9,8.7,38,28,16,28.27,28.15,5,1,8,0.00
2013-12-21,71.7,60.8,49.3,45.5,37.5,21.0,59,43,31,28.18,27.98,9,3,16,0.00
2013-12-22,69.6,58.0,51.8,55.2,50.4,40.1,100,81,35,28.18,27.98,9,3,21,0.00
2013-12-23,53.8,43.2,31.3,53.8,37.6,15.7,100,82,52,28.33,28.09,9,4,15,0.00
2013-12-24,31.5,28.1,18.7,17.5,8.9,-0.8,61,45,29,28.48,28.27,8,3,15,0.00
2013-12-25,40.6,26.3,16.9,7.5,3.0,-1.6,55,38,21,28.48,28.30,7,1,10,0.00
2013-12-26,43.0,31.8,23.5,15.5,10.2,5.8,53,41,28,28.42,28.30,7,2,12,0.00
2013-12-27,48.4,33.4,24.1,12.3,7.9,2.8,47,35,19,28.48,28.36,6,1,7,0.00
2013-12-28,46.9,36.6,27.1,36.2,15.5,7.8,89,44,27,28.45,28.12,3,1,4,0.00
2013-12-29,44.5,42.7,39.7,44.5,41.5,35.7,100,96,83,28.12,27.86,9,4,16,0.00
2013-12-30,40.3,36.8,34.3,39.0,30.4,24.3,97,78,65,28.21,28.04,7,4,10,0.00
2013-12-31,34.5,34.5,34.5,28.1,28.1,28.1,77,77,77,28.42,28.18,9,3,15,0.00
2014-1-1,34.5,34.5,34.5,28.1,28.1,28.1,77,77,77,28.39,28.15,6,2,9,0.00
2014-1-2,34.5,34.5,34.5,28.1,28.1,28.1,77,77,77,28.15,27.74,12,3,20,0.00